Home   Weather   Naha   Past weeks
Flag for Japan

Past Weather in Naha, Okinawa, Japan — Yesterday and Last 2 Weeks

Now
77 °F

Broken clouds.


Feels Like: 79 °F
Forecast: 80 / 74 °F
Wind: 23 mph from North

Location: Naha Airport

Current Time: Oct 15, 2019 at 8:41:10 am

Latest Report: Oct 15, 2019 at 8:00 am


Visibility: N/A

Pressure: 30.04 "Hg

Humidity: 79%

Dew Point: 70 °F

Location of NahaLocation

Past Weather in Naha — Graph

°F

Naha Temperature Yesterday

Maximum temperature yesterday: 84 °F (at 12:00 pm)
Minimum temperature yesterday: 75 °F (at 10:00 pm)
Average temperature yesterday: 79 °F

High & Low Weather Summary for the Past Weeks

 TemperatureHumidityPressure
High90 °F (Sep 30, 1:30 pm)94% (Oct 3, 6:30 am)30.04 "Hg (Oct 3, 6:30 am)
Low75 °F (Oct 5, 4:30 am)54% (Oct 9, 4:00 pm)29.68 "Hg (Oct 11, 3:00 pm)
Average81 °F75%29.90 "Hg
* Reported Sep 30 7:00 am — Oct 15 7:30 am, Naha. Weather by CustomWeather, © 2019

Note: Actual official high and low records may vary slightly from our data, if they occured in-between our weather recording intervals... More about our weather records

Advertising

Naha Weather History for the Previous 24 Hours

Scroll right to see more
 ConditionsComfort  
Time TempWeatherWind HumidityBarometerVisibility
7:30 am
Tue, Oct 15
77 °FScattered showers. Broken clouds.25 mph79%30.04 "HgN/A
7:00 am77 °FScattered showers. Broken clouds.25 mph74%30.04 "HgN/A
6:30 am77 °FPartly sunny.24 mph79%30.04 "HgN/A
6:00 am77 °FPartly cloudy.21 mph79%30.01 "HgN/A
5:30 am77 °FPartly cloudy.21 mph79%30.01 "HgN/A
5:00 am77 °FPartly cloudy.18 mph79%30.01 "HgN/A
4:30 am77 °FScattered showers. Passing clouds.21 mph79%30.01 "HgN/A
4:00 am77 °FScattered showers. Partly cloudy.18 mph79%30.01 "HgN/A
3:30 am77 °FScattered showers. Partly cloudy.20 mph83%30.01 "HgN/A
3:00 am77 °FPartly cloudy.20 mph83%30.01 "HgN/A
2:30 am77 °FPartly cloudy.20 mph83%30.01 "HgN/A
2:00 am77 °FPassing clouds.20 mph83%30.01 "HgN/A
1:30 am77 °FPassing clouds.20 mph83%30.04 "HgN/A
1:00 am77 °FPartly cloudy.18 mph89%30.04 "HgN/A
12:30 am77 °FSprinkles. Partly cloudy.17 mph89%30.04 "HgN/A
12:00 am77 °FScattered showers. Partly cloudy.15 mph89%30.04 "HgN/A
11:30 pm
Mon, Oct 14
77 °FPartly cloudy.12 mph89%30.04 "HgN/A
11:00 pm75 °FSprinkles. Partly cloudy.12 mph94%30.04 "Hg4 mi
10:30 pm77 °FRain showers. Partly cloudy.10 mph83%30.04 "Hg5 mi
10:00 pm75 °FRain showers. Partly cloudy.12 mph94%30.04 "Hg6 mi
9:30 pm77 °FRain showers. Partly cloudy.18 mph89%30.04 "Hg4 mi
9:00 pm77 °FSprinkles. Partly cloudy.15 mph89%30.01 "HgN/A
8:30 pm77 °FSprinkles. Partly cloudy.14 mph89%30.01 "HgN/A
8:00 pm79 °FRain showers. Passing clouds.17 mph84%30.01 "HgN/A
7:48 pm81 °FScattered showers. Passing clouds.12 mph79%30.01 "HgN/A
7:30 pm81 °FScattered showers. Passing clouds.8 mph74%30.01 "HgN/A
7:00 pm81 °FPartly cloudy.8 mph74%29.98 "HgN/A
6:30 pm79 °FScattered showers. Partly cloudy.7 mph84%29.98 "HgN/A
6:00 pm79 °FScattered showers. Scattered clouds.15 mph89%29.98 "HgN/A
5:30 pm79 °FScattered showers. Broken clouds.20 mph89%29.98 "HgN/A
5:00 pm81 °FScattered showers. Broken clouds.20 mph84%29.98 "HgN/A
4:30 pm81 °FSprinkles. Broken clouds.22 mph84%29.95 "HgN/A
4:00 pm82 °FSprinkles. Broken clouds.20 mph79%29.95 "HgN/A
3:30 pm82 °FSprinkles. Broken clouds.15 mph79%29.95 "HgN/A
3:00 pm82 °FSprinkles. Broken clouds.10 mph74%29.95 "HgN/A
2:30 pm84 °FSprinkles. Broken clouds.7 mph66%29.95 "HgN/A
2:00 pm82 °FSprinkles. Broken clouds.14 mph79%29.95 "HgN/A
1:48 pm81 °FSprinkles. Broken clouds.12 mph84%29.95 "HgN/A
1:30 pm81 °FSprinkles. Broken clouds.8 mph84%29.95 "HgN/A
1:00 pm82 °FSprinkles. Broken clouds.13 mph79%29.95 "HgN/A
12:30 pm84 °FScattered clouds.12 mph74%29.95 "HgN/A
12:00 pm84 °FScattered showers. Partly sunny.13 mph74%29.98 "HgN/A
11:30 am82 °FScattered showers. Broken clouds.14 mph79%29.98 "HgN/A
11:00 am79 °FSprinkles. Broken clouds.12 mph89%29.98 "HgN/A
10:30 am82 °FSprinkles. Scattered clouds.9 mph74%29.98 "HgN/A
10:00 am81 °FScattered showers. Scattered clouds.7 mph79%29.98 "HgN/A
9:30 am81 °FScattered showers. Partly sunny.7 mph79%29.98 "HgN/A
9:00 am82 °FSprinkles. Partly sunny.6 mph70%29.98 "HgN/A
8:30 am81 °FScattered showers. Partly sunny.8 mph74%29.98 "HgN/A
8:00 am79 °FPartly sunny.8 mph79%29.98 "HgN/A
Weather by CustomWeather, © 2019

See weather overview